Year,Month,Day,Hour,Minute,Value (Times are PST for temperature in C)
2008,07,13,00,00,17.60
2008,07,13,00,01,17.50
2008,07,13,00,02,17.50
2008,07,13,00,03,17.50
2008,07,13,00,04,17.40
2008,07,13,00,05,17.40
2008,07,13,00,06,17.30
2008,07,13,00,07,17.30
2008,07,13,00,08,17.30
2008,07,13,00,09,17.30
2008,07,13,00,10,17.30
2008,07,13,00,11,17.30
2008,07,13,00,12,17.30
2008,07,13,00,13,17.30
2008,07,13,00,14,17.30
2008,07,13,00,15,17.30
2008,07,13,00,16,17.30
2008,07,13,00,17,17.30
2008,07,13,00,18,17.20
2008,07,13,00,19,17.20
2008,07,13,00,20,17.20
2008,07,13,00,21,17.20
2008,07,13,00,22,17.10
2008,07,13,00,23,17.10
2008,07,13,00,24,17.10
2008,07,13,00,25,17.00
2008,07,13,00,26,17.00
2008,07,13,00,27,17.00
2008,07,13,00,28,16.90
2008,07,13,00,29,16.90
2008,07,13,00,30,16.90
2008,07,13,00,31,16.80
2008,07,13,00,32,16.80
2008,07,13,00,33,16.80
2008,07,13,00,34,16.70
2008,07,13,00,35,16.70
2008,07,13,00,36,16.70
2008,07,13,00,37,16.70
2008,07,13,00,38,16.60
2008,07,13,00,39,16.60
2008,07,13,00,40,16.50
2008,07,13,00,41,16.40
2008,07,13,00,42,16.40
2008,07,13,00,43,16.40
2008,07,13,00,44,16.30
2008,07,13,00,45,16.30
2008,07,13,00,46,16.30
2008,07,13,00,47,16.20
2008,07,13,00,48,16.20
2008,07,13,00,49,16.10
2008,07,13,00,50,16.10
2008,07,13,00,51,16.10
2008,07,13,00,52,16.10
2008,07,13,00,53,16.10
2008,07,13,00,54,15.90
2008,07,13,00,55,15.90
2008,07,13,00,56,15.90
2008,07,13,00,57,15.80
2008,07,13,00,58,15.80
2008,07,13,00,59,15.80
2008,07,13,01,00,15.80
2008,07,13,01,01,15.80
2008,07,13,01,02,15.70
2008,07,13,01,03,15.70
2008,07,13,01,04,15.60
2008,07,13,01,05,15.60
2008,07,13,01,06,15.60
2008,07,13,01,07,15.50
2008,07,13,01,08,15.50
2008,07,13,01,09,15.40
2008,07,13,01,10,15.40
2008,07,13,01,11,15.40
2008,07,13,01,12,15.30
2008,07,13,01,13,15.30
2008,07,13,01,14,15.30
2008,07,13,01,15,15.30
2008,07,13,01,16,15.30
2008,07,13,01,17,15.30
2008,07,13,01,18,15.20
2008,07,13,01,19,15.20
2008,07,13,01,20,15.20
2008,07,13,01,21,15.10
2008,07,13,01,22,15.10
2008,07,13,01,23,15.10
2008,07,13,01,24,15.00
2008,07,13,01,25,15.00
2008,07,13,01,26,15.00
2008,07,13,01,27,14.90
2008,07,13,01,28,14.90
2008,07,13,01,29,14.90
2008,07,13,01,30,14.80
2008,07,13,01,31,14.80
2008,07,13,01,32,14.80
2008,07,13,01,33,14.80
2008,07,13,01,34,14.80
2008,07,13,01,35,14.80
2008,07,13,01,36,14.70
2008,07,13,01,37,14.70
2008,07,13,01,38,14.70
2008,07,13,01,39,14.70
2008,07,13,01,40,14.60
2008,07,13,01,41,14.60
2008,07,13,01,42,14.60
2008,07,13,01,43,14.60
2008,07,13,01,44,14.50
2008,07,13,01,45,14.50
2008,07,13,01,46,14.50
2008,07,13,01,47,14.50
2008,07,13,01,48,14.40
2008,07,13,01,49,14.40
2008,07,13,01,50,14.40
2008,07,13,01,51,14.40
2008,07,13,01,52,14.30
2008,07,13,01,53,14.30
2008,07,13,01,54,14.30
2008,07,13,01,55,14.30
2008,07,13,01,56,14.20
2008,07,13,01,57,14.20
2008,07,13,01,58,14.20
2008,07,13,01,59,14.20
2008,07,13,02,00,14.20
2008,07,13,02,01,14.20
2008,07,13,02,02,14.20
2008,07,13,02,03,14.20
2008,07,13,02,04,14.20
2008,07,13,02,05,14.20
2008,07,13,02,06,14.20
2008,07,13,02,07,14.20
2008,07,13,02,08,14.10
2008,07,13,02,09,14.10
2008,07,13,02,10,14.10
2008,07,13,02,11,14.10
2008,07,13,02,12,14.10
2008,07,13,02,13,14.10
2008,07,13,02,14,14.10
2008,07,13,02,15,14.10
2008,07,13,02,16,14.10
2008,07,13,02,17,14.20
2008,07,13,02,18,14.20
2008,07,13,02,19,14.20
2008,07,13,02,20,14.20
2008,07,13,02,21,14.20
2008,07,13,02,22,14.20
2008,07,13,02,23,14.20
2008,07,13,02,24,14.30
2008,07,13,02,25,14.40
2008,07,13,02,26,14.40
2008,07,13,02,27,14.50
2008,07,13,02,28,14.50
2008,07,13,02,29,14.60
2008,07,13,02,30,14.60
2008,07,13,02,31,14.60
2008,07,13,02,32,14.70
2008,07,13,02,33,14.70
2008,07,13,02,34,14.70
2008,07,13,02,35,14.80
2008,07,13,02,36,14.90
2008,07,13,02,37,14.90
2008,07,13,02,38,14.90
2008,07,13,02,39,14.90
2008,07,13,02,40,15.00
2008,07,13,02,41,15.00
2008,07,13,02,42,15.00
2008,07,13,02,43,15.10
2008,07,13,02,44,15.10
2008,07,13,02,45,15.10
2008,07,13,02,46,15.10
2008,07,13,02,47,15.10
2008,07,13,02,48,15.20
2008,07,13,02,49,15.20
2008,07,13,02,50,15.20
2008,07,13,02,51,15.20
2008,07,13,02,52,15.20
2008,07,13,02,53,15.20
2008,07,13,02,54,15.20
2008,07,13,02,55,15.20
2008,07,13,02,56,15.20
2008,07,13,02,57,15.20
2008,07,13,02,58,15.20
2008,07,13,02,59,15.20
2008,07,13,03,00,15.20
2008,07,13,03,01,15.20
2008,07,13,03,02,15.20
2008,07,13,03,03,15.20
2008,07,13,03,04,15.20
2008,07,13,03,05,15.20
2008,07,13,03,06,15.20
2008,07,13,03,07,15.20
2008,07,13,03,08,15.20
2008,07,13,03,09,15.20
2008,07,13,03,10,15.10
2008,07,13,03,11,15.10
2008,07,13,03,12,15.20
2008,07,13,03,13,15.20
2008,07,13,03,14,15.20
2008,07,13,03,15,15.20
2008,07,13,03,16,15.20
2008,07,13,03,17,15.20
2008,07,13,03,18,15.20
2008,07,13,03,19,15.20
2008,07,13,03,20,15.20
2008,07,13,03,21,15.10
2008,07,13,03,22,15.10
2008,07,13,03,23,15.10
2008,07,13,03,24,15.10
2008,07,13,03,25,15.10
2008,07,13,03,26,15.10
2008,07,13,03,27,15.10
2008,07,13,03,28,15.10
2008,07,13,03,29,15.10
2008,07,13,03,30,15.10
2008,07,13,03,31,15.10
2008,07,13,03,32,15.10
2008,07,13,03,33,15.10
2008,07,13,03,34,15.00
2008,07,13,03,35,15.00
2008,07,13,03,36,15.00
2008,07,13,03,37,15.00
2008,07,13,03,38,15.00
2008,07,13,03,39,15.00
2008,07,13,03,40,15.00
2008,07,13,03,41,15.00
2008,07,13,03,42,14.90
2008,07,13,03,43,14.90
2008,07,13,03,44,14.90
2008,07,13,03,45,14.90
2008,07,13,03,46,14.90
2008,07,13,03,47,14.90
2008,07,13,03,48,14.90
2008,07,13,03,49,14.80
2008,07,13,03,50,14.80
2008,07,13,03,51,14.80
2008,07,13,03,52,14.80
2008,07,13,03,53,14.80
2008,07,13,03,54,14.80
2008,07,13,03,55,14.80
2008,07,13,03,56,14.80
2008,07,13,03,57,14.80
2008,07,13,03,58,14.80
2008,07,13,03,59,14.80
2008,07,13,04,00,14.80
2008,07,13,04,01,14.80
2008,07,13,04,02,14.80
2008,07,13,04,03,14.80
2008,07,13,04,04,14.80
2008,07,13,04,05,14.80
2008,07,13,04,06,14.80
2008,07,13,04,07,14.80
2008,07,13,04,08,14.80
2008,07,13,04,09,14.80
2008,07,13,04,10,14.80
2008,07,13,04,11,14.80
2008,07,13,04,12,14.70
2008,07,13,04,13,14.70
2008,07,13,04,14,14.70
2008,07,13,04,15,14.60
2008,07,13,04,16,14.60
2008,07,13,04,17,14.60
2008,07,13,04,18,14.50
2008,07,13,04,19,14.50
2008,07,13,04,20,14.50
2008,07,13,04,21,14.50
2008,07,13,04,22,14.40
2008,07,13,04,23,14.40
2008,07,13,04,24,14.40
2008,07,13,04,25,14.30
2008,07,13,04,26,14.30
2008,07,13,04,27,14.30
2008,07,13,04,28,14.20
2008,07,13,04,29,14.20
2008,07,13,04,30,14.20
2008,07,13,04,31,14.20
2008,07,13,04,32,14.10
2008,07,13,04,33,14.10
2008,07,13,04,34,14.00
2008,07,13,04,35,14.00
2008,07,13,04,36,14.00
2008,07,13,04,37,14.00
2008,07,13,04,38,14.00
2008,07,13,04,39,14.00
2008,07,13,04,40,14.00
2008,07,13,04,41,14.00
2008,07,13,04,42,14.00
2008,07,13,04,43,14.00
2008,07,13,04,44,14.00
2008,07,13,04,45,14.00
2008,07,13,04,46,14.00
2008,07,13,04,47,14.00
2008,07,13,04,48,13.90
2008,07,13,04,49,13.90
2008,07,13,04,50,13.90
2008,07,13,04,51,13.90
2008,07,13,04,52,13.80
2008,07,13,04,53,13.80
2008,07,13,04,54,13.80
2008,07,13,04,55,13.70
2008,07,13,04,56,13.70
2008,07,13,04,57,13.70
2008,07,13,04,58,13.70
2008,07,13,04,59,13.70
2008,07,13,05,00,13.60
2008,07,13,05,01,13.60
2008,07,13,05,02,13.60
2008,07,13,05,03,13.50
2008,07,13,05,04,13.50
2008,07,13,05,05,13.50
2008,07,13,05,06,13.40
2008,07,13,05,07,13.40
2008,07,13,05,08,13.40
2008,07,13,05,09,13.30
2008,07,13,05,10,13.30
2008,07,13,05,11,13.30
2008,07,13,05,12,13.30
2008,07,13,05,13,13.30
2008,07,13,05,14,13.20
2008,07,13,05,15,13.20
2008,07,13,05,16,13.20
2008,07,13,05,17,13.10
2008,07,13,05,18,13.10
2008,07,13,05,19,13.10
2008,07,13,05,20,13.00
2008,07,13,05,21,13.00
2008,07,13,05,22,13.00
2008,07,13,05,23,12.90
2008,07,13,05,24,12.90
2008,07,13,05,25,12.90
2008,07,13,05,26,12.80
2008,07,13,05,27,12.80
2008,07,13,05,28,12.80
2008,07,13,05,29,12.80
2008,07,13,05,30,12.80
2008,07,13,05,31,12.80
2008,07,13,05,32,12.80
2008,07,13,05,33,12.80
2008,07,13,05,34,12.80
2008,07,13,05,35,12.90
2008,07,13,05,36,12.90
2008,07,13,05,37,12.90
2008,07,13,05,38,13.00
2008,07,13,05,39,13.00
2008,07,13,05,40,13.00
2008,07,13,05,41,13.00
2008,07,13,05,42,13.00
2008,07,13,05,43,13.00
2008,07,13,05,44,13.00
2008,07,13,05,45,13.00
2008,07,13,05,46,13.00
2008,07,13,05,47,13.10
2008,07,13,05,48,13.10
2008,07,13,05,49,13.10
2008,07,13,05,50,13.10
2008,07,13,05,51,13.20
2008,07,13,05,52,13.20
2008,07,13,05,53,13.30
2008,07,13,05,54,13.30
2008,07,13,05,55,13.30
2008,07,13,05,56,13.30
2008,07,13,05,57,13.30
2008,07,13,05,58,13.30
2008,07,13,05,59,13.30
2008,07,13,06,00,13.30
2008,07,13,06,01,13.30
2008,07,13,06,02,13.30
2008,07,13,06,03,13.40
2008,07,13,06,04,13.40
2008,07,13,06,05,13.40
2008,07,13,06,06,13.50
2008,07,13,06,07,13.50
2008,07,13,06,08,13.60
2008,07,13,06,09,13.60
2008,07,13,06,10,13.70
2008,07,13,06,11,13.70
2008,07,13,06,12,13.80
2008,07,13,06,13,13.80
2008,07,13,06,14,13.90
2008,07,13,06,15,13.90
2008,07,13,06,16,13.90
2008,07,13,06,17,13.90
2008,07,13,06,18,14.00
2008,07,13,06,19,14.00
2008,07,13,06,20,14.10
2008,07,13,06,21,14.20
2008,07,13,06,22,14.40
2008,07,13,06,23,14.50
2008,07,13,06,24,14.60
2008,07,13,06,25,14.70
2008,07,13,06,26,14.80
2008,07,13,06,27,14.90
2008,07,13,06,28,15.00
2008,07,13,06,29,15.10
2008,07,13,06,30,15.30
2008,07,13,06,31,15.30
2008,07,13,06,32,15.40
2008,07,13,06,33,15.50
2008,07,13,06,34,15.60
2008,07,13,06,35,15.70
2008,07,13,06,36,15.70
2008,07,13,06,37,15.80
2008,07,13,06,38,15.80
2008,07,13,06,39,15.80
2008,07,13,06,40,15.90
2008,07,13,06,41,15.90
2008,07,13,06,42,16.00
2008,07,13,06,43,16.10
2008,07,13,06,44,16.20
2008,07,13,06,45,16.20
2008,07,13,06,46,16.20
2008,07,13,06,47,16.30
2008,07,13,06,48,16.30
2008,07,13,06,49,16.40
2008,07,13,06,50,16.40
2008,07,13,06,51,16.40
2008,07,13,06,52,16.40
2008,07,13,06,53,16.40
2008,07,13,06,54,16.50
2008,07,13,06,55,16.60
2008,07,13,06,56,16.60
2008,07,13,06,57,16.70
2008,07,13,06,58,16.70
2008,07,13,06,59,16.80
2008,07,13,07,00,16.80
2008,07,13,07,01,16.90
2008,07,13,07,02,17.00
2008,07,13,07,03,17.00
2008,07,13,07,04,17.10
2008,07,13,07,05,17.20
2008,07,13,07,06,17.20
2008,07,13,07,07,17.30
2008,07,13,07,08,17.30
2008,07,13,07,09,17.30
2008,07,13,07,10,17.40
2008,07,13,07,11,17.50
2008,07,13,07,12,17.50
2008,07,13,07,13,17.60
2008,07,13,07,14,17.70
2008,07,13,07,15,17.80
2008,07,13,07,16,17.80
2008,07,13,07,17,17.90
2008,07,13,07,18,17.90
2008,07,13,07,19,18.00
2008,07,13,07,20,17.90
2008,07,13,07,21,17.90
2008,07,13,07,22,17.90
2008,07,13,07,23,17.90
2008,07,13,07,24,17.90
2008,07,13,07,25,18.00
2008,07,13,07,26,18.10
2008,07,13,07,27,18.10
2008,07,13,07,28,18.10
2008,07,13,07,29,18.10
2008,07,13,07,30,18.10
2008,07,13,07,31,18.10
2008,07,13,07,32,18.10
2008,07,13,07,33,18.00
2008,07,13,07,34,17.90
2008,07,13,07,35,17.90
2008,07,13,07,36,17.90
2008,07,13,07,37,17.90
2008,07,13,07,38,18.00
2008,07,13,07,39,18.10
2008,07,13,07,40,18.10
2008,07,13,07,41,18.20
2008,07,13,07,42,18.20
2008,07,13,07,43,18.20
2008,07,13,07,44,18.20
2008,07,13,07,45,18.20
2008,07,13,07,46,18.20
2008,07,13,07,47,18.20
2008,07,13,07,48,18.20
2008,07,13,07,49,18.20
2008,07,13,07,50,18.20
2008,07,13,07,51,18.10
2008,07,13,07,52,18.10
2008,07,13,07,53,18.20
2008,07,13,07,54,18.20
2008,07,13,07,55,18.20
2008,07,13,07,56,18.20
2008,07,13,07,57,18.30
2008,07,13,07,58,18.50
2008,07,13,07,59,18.60
2008,07,13,08,00,18.70
2008,07,13,08,01,18.70
2008,07,13,08,02,18.90
2008,07,13,08,03,19.00
2008,07,13,08,04,19.10
2008,07,13,08,05,19.20
2008,07,13,08,06,19.30
2008,07,13,08,07,19.40
2008,07,13,08,08,19.50
2008,07,13,08,09,19.50
2008,07,13,08,10,19.60
2008,07,13,08,11,19.80
2008,07,13,08,12,19.90
2008,07,13,08,13,20.00
2008,07,13,08,14,20.10
2008,07,13,08,15,20.20
2008,07,13,08,16,20.20
2008,07,13,08,17,20.30
2008,07,13,08,18,20.30
2008,07,13,08,19,20.40
2008,07,13,08,20,20.40
2008,07,13,08,21,20.40
2008,07,13,08,22,20.50
2008,07,13,08,23,20.50
2008,07,13,08,24,20.50
2008,07,13,08,25,20.50
2008,07,13,08,26,20.60
2008,07,13,08,27,20.60
2008,07,13,08,28,20.60
2008,07,13,08,29,20.70
2008,07,13,08,30,20.70
2008,07,13,08,31,20.70
2008,07,13,08,32,20.80
2008,07,13,08,33,20.80
2008,07,13,08,34,20.90
2008,07,13,08,35,20.90
2008,07,13,08,36,20.90
2008,07,13,08,37,20.90
2008,07,13,08,38,20.90
2008,07,13,08,39,20.90
2008,07,13,08,40,20.90
2008,07,13,08,41,20.90
2008,07,13,08,42,20.90
2008,07,13,08,43,20.90
2008,07,13,08,44,21.00
2008,07,13,08,45,21.00
2008,07,13,08,46,21.00
2008,07,13,08,47,20.90
2008,07,13,08,48,20.80
2008,07,13,08,49,20.70
2008,07,13,08,50,20.60
2008,07,13,08,51,20.50
2008,07,13,08,52,20.50
2008,07,13,08,53,20.50
2008,07,13,08,54,20.50
2008,07,13,08,55,20.60
2008,07,13,08,56,20.50
2008,07,13,08,57,20.40
2008,07,13,08,58,20.40
2008,07,13,08,59,20.30
2008,07,13,09,00,20.30
2008,07,13,09,01,20.30
2008,07,13,09,02,20.20
2008,07,13,09,03,20.20
2008,07,13,09,04,20.30
2008,07,13,09,05,20.30
2008,07,13,09,06,20.30
2008,07,13,09,07,20.40
2008,07,13,09,08,20.40
2008,07,13,09,09,20.40
2008,07,13,09,10,20.30
2008,07,13,09,11,20.20
2008,07,13,09,12,20.20
2008,07,13,09,13,20.20
2008,07,13,09,14,20.20
2008,07,13,09,15,20.20
2008,07,13,09,16,20.20
2008,07,13,09,17,20.20
2008,07,13,09,18,20.30
2008,07,13,09,19,20.30
2008,07,13,09,20,20.30
2008,07,13,09,21,20.40
2008,07,13,09,22,20.40
2008,07,13,09,23,20.40
2008,07,13,09,24,20.50
2008,07,13,09,25,20.50
2008,07,13,09,26,20.50
2008,07,13,09,27,20.50
2008,07,13,09,28,20.60
2008,07,13,09,29,20.60
2008,07,13,09,30,20.60
2008,07,13,09,31,20.60
2008,07,13,09,32,20.60
2008,07,13,09,33,20.60
2008,07,13,09,34,20.60
2008,07,13,09,35,20.60
2008,07,13,09,36,20.60
2008,07,13,09,37,20.60
2008,07,13,09,38,20.60
2008,07,13,09,39,20.50
2008,07,13,09,40,20.50
2008,07,13,09,41,20.50
2008,07,13,09,42,20.60
2008,07,13,09,43,20.50
2008,07,13,09,44,20.50
2008,07,13,09,45,20.40
2008,07,13,09,46,20.30
2008,07,13,09,47,20.30
2008,07,13,09,48,20.30
2008,07,13,09,49,20.30
2008,07,13,09,50,20.30
2008,07,13,09,51,20.30
2008,07,13,09,52,20.30
2008,07,13,09,53,20.40
2008,07,13,09,54,20.40
2008,07,13,09,55,20.40
2008,07,13,09,56,20.40
2008,07,13,09,57,20.40
2008,07,13,09,58,20.40
2008,07,13,09,59,20.40
2008,07,13,10,00,20.50
2008,07,13,10,01,20.60
2008,07,13,10,02,20.70
2008,07,13,10,03,20.70
2008,07,13,10,04,20.80
2008,07,13,10,05,20.90
2008,07,13,10,06,20.90
2008,07,13,10,07,21.00
2008,07,13,10,08,21.00
2008,07,13,10,09,21.10
2008,07,13,10,10,21.20
2008,07,13,10,11,21.30
2008,07,13,10,12,21.20
2008,07,13,10,13,21.20
2008,07,13,10,14,21.20
2008,07,13,10,15,21.20
2008,07,13,10,16,21.20
2008,07,13,10,17,21.20
2008,07,13,10,18,21.20
2008,07,13,10,19,21.20
2008,07,13,10,20,21.20
2008,07,13,10,21,21.20
2008,07,13,10,22,21.20
2008,07,13,10,23,21.30
2008,07,13,10,24,21.30
2008,07,13,10,25,21.30
2008,07,13,10,26,21.30
2008,07,13,10,27,21.30
2008,07,13,10,28,21.20
2008,07,13,10,29,21.20
2008,07,13,10,30,21.30
2008,07,13,10,31,21.30
2008,07,13,10,32,21.30
2008,07,13,10,33,21.30
2008,07,13,10,34,21.30
2008,07,13,10,35,21.30
2008,07,13,10,36,21.30
2008,07,13,10,37,21.40
2008,07,13,10,38,21.60
2008,07,13,10,39,21.60
2008,07,13,10,40,21.60
2008,07,13,10,41,21.60
2008,07,13,10,42,21.60
2008,07,13,10,43,21.60
2008,07,13,10,44,21.70
2008,07,13,10,45,21.70
2008,07,13,10,46,21.70
2008,07,13,10,47,21.70
2008,07,13,10,48,21.70
2008,07,13,10,49,21.70
2008,07,13,10,50,21.70
2008,07,13,10,51,21.70
2008,07,13,10,52,21.70
2008,07,13,10,53,21.80
2008,07,13,10,54,21.80
2008,07,13,10,55,21.70
2008,07,13,10,56,21.60
2008,07,13,10,57,21.60
2008,07,13,10,58,21.70
2008,07,13,10,59,21.60
2008,07,13,11,00,21.60
2008,07,13,11,01,21.60
2008,07,13,11,02,21.60
2008,07,13,11,03,21.60
2008,07,13,11,04,21.60
2008,07,13,11,05,21.60
2008,07,13,11,06,21.60
2008,07,13,11,07,21.60
2008,07,13,11,08,21.70
2008,07,13,11,09,21.70
2008,07,13,11,10,21.70
2008,07,13,11,11,21.60
2008,07,13,11,12,21.60
2008,07,13,11,13,21.70
2008,07,13,11,14,21.80
2008,07,13,11,15,21.80
2008,07,13,11,16,21.90
2008,07,13,11,17,21.90
2008,07,13,11,18,21.90
2008,07,13,11,19,21.80
2008,07,13,11,20,21.60
2008,07,13,11,21,21.60
2008,07,13,11,22,21.60
2008,07,13,11,23,21.70
2008,07,13,11,24,21.70
2008,07,13,11,25,21.70
2008,07,13,11,26,21.70
2008,07,13,11,27,21.60
2008,07,13,11,28,21.60
2008,07,13,11,29,21.70
2008,07,13,11,30,21.80
2008,07,13,11,31,21.80
2008,07,13,11,32,21.80
2008,07,13,11,33,21.80
2008,07,13,11,34,21.70
2008,07,13,11,35,21.70
2008,07,13,11,36,21.80
2008,07,13,11,37,21.80
2008,07,13,11,38,21.80
2008,07,13,11,39,21.80
2008,07,13,11,40,21.80
2008,07,13,11,41,21.80
2008,07,13,11,42,21.80
2008,07,13,11,43,21.90
2008,07,13,11,44,21.90
2008,07,13,11,45,22.00
2008,07,13,11,46,22.00
2008,07,13,11,47,22.10
2008,07,13,11,48,22.20
2008,07,13,11,49,22.20
2008,07,13,11,50,22.20
2008,07,13,11,51,22.10
2008,07,13,11,52,22.10
2008,07,13,11,53,22.10
2008,07,13,11,54,22.10
2008,07,13,11,55,22.10
2008,07,13,11,56,22.10
2008,07,13,11,57,22.10
2008,07,13,11,58,22.10
2008,07,13,11,59,22.10
2008,07,13,12,00,22.00
2008,07,13,12,01,21.90
2008,07,13,12,02,21.90
2008,07,13,12,03,21.90
2008,07,13,12,04,21.70
2008,07,13,12,05,21.70
2008,07,13,12,06,21.60
2008,07,13,12,07,21.70
2008,07,13,12,08,21.70
2008,07,13,12,09,21.70
2008,07,13,12,10,21.80
2008,07,13,12,11,22.00
2008,07,13,12,12,22.00
2008,07,13,12,13,22.10
2008,07,13,12,14,22.10
2008,07,13,12,15,22.20
2008,07,13,12,16,22.30
2008,07,13,12,17,22.30
2008,07,13,12,18,22.40
2008,07,13,12,19,22.10
2008,07,13,12,20,21.80
2008,07,13,12,21,21.60
2008,07,13,12,22,21.60
2008,07,13,12,23,21.70
2008,07,13,12,24,21.70
2008,07,13,12,25,21.60
2008,07,13,12,26,21.60
2008,07,13,12,27,21.60
2008,07,13,12,28,21.80
2008,07,13,12,29,21.90
2008,07,13,12,30,21.90
2008,07,13,12,31,21.80
2008,07,13,12,32,21.80
2008,07,13,12,33,22.00
2008,07,13,12,34,21.90
2008,07,13,12,35,21.80
2008,07,13,12,36,21.90
2008,07,13,12,37,22.00
2008,07,13,12,38,22.00
2008,07,13,12,39,21.90
2008,07,13,12,40,21.70
2008,07,13,12,41,21.60
2008,07,13,12,42,21.60
2008,07,13,12,43,21.60
2008,07,13,12,44,21.60
2008,07,13,12,45,21.60
2008,07,13,12,46,21.60
2008,07,13,12,47,21.60
2008,07,13,12,48,21.60
2008,07,13,12,49,21.60
2008,07,13,12,50,21.60
2008,07,13,12,51,21.60
2008,07,13,12,52,21.60
2008,07,13,12,53,21.60
2008,07,13,12,54,21.40
2008,07,13,12,55,21.30
2008,07,13,12,56,21.30
2008,07,13,12,57,21.20
2008,07,13,12,58,21.20
2008,07,13,12,59,21.20
2008,07,13,13,00,21.30
2008,07,13,13,01,21.30
2008,07,13,13,02,21.30
2008,07,13,13,03,21.30
2008,07,13,13,04,21.30
2008,07,13,13,05,21.30
2008,07,13,13,06,21.30
2008,07,13,13,07,21.40
2008,07,13,13,08,21.60
2008,07,13,13,09,21.40
2008,07,13,13,10,21.20
2008,07,13,13,11,21.00
2008,07,13,13,12,21.00
2008,07,13,13,13,21.00
2008,07,13,13,14,20.90
2008,07,13,13,15,20.70
2008,07,13,13,16,20.60
2008,07,13,13,17,20.60
2008,07,13,13,18,20.50
2008,07,13,13,19,20.60
2008,07,13,13,20,20.60
2008,07,13,13,21,20.80
2008,07,13,13,22,21.00
2008,07,13,13,23,21.10
2008,07,13,13,24,21.20
2008,07,13,13,25,21.30
2008,07,13,13,26,21.30
2008,07,13,13,27,21.30
2008,07,13,13,28,21.30
2008,07,13,13,29,21.30
2008,07,13,13,30,21.30
2008,07,13,13,31,21.40
2008,07,13,13,32,21.40
2008,07,13,13,33,21.50
2008,07,13,13,34,21.60
2008,07,13,13,35,21.70
2008,07,13,13,36,21.80
2008,07,13,13,37,21.90
2008,07,13,13,38,22.10
2008,07,13,13,39,22.10
2008,07,13,13,40,22.00
2008,07,13,13,41,22.00
2008,07,13,13,42,21.90
2008,07,13,13,43,21.90
2008,07,13,13,44,21.70
2008,07,13,13,45,21.50
2008,07,13,13,46,21.30
2008,07,13,13,47,21.00
2008,07,13,13,48,20.60
2008,07,13,13,49,20.40
2008,07,13,13,50,20.20
2008,07,13,13,51,20.20
2008,07,13,13,52,20.20
2008,07,13,13,53,20.20
2008,07,13,13,54,20.20
2008,07,13,13,55,20.20
2008,07,13,13,56,20.20
2008,07,13,13,57,20.10
2008,07,13,13,58,19.80
2008,07,13,13,59,19.60
2008,07,13,14,00,19.40
2008,07,13,14,01,19.30
2008,07,13,14,02,19.30
2008,07,13,14,03,19.40
2008,07,13,14,04,19.30
2008,07,13,14,05,19.20
2008,07,13,14,06,19.10
2008,07,13,14,07,19.10
2008,07,13,14,08,19.10
2008,07,13,14,09,19.10
2008,07,13,14,10,19.10
2008,07,13,14,11,19.10
2008,07,13,14,12,19.10
2008,07,13,14,13,19.00
2008,07,13,14,14,18.90
2008,07,13,14,15,18.90
2008,07,13,14,16,18.80
2008,07,13,14,17,18.70
2008,07,13,14,18,18.70
2008,07,13,14,19,18.70
2008,07,13,14,20,18.80
2008,07,13,14,21,18.80
2008,07,13,14,22,18.70
2008,07,13,14,23,18.70
2008,07,13,14,24,18.70
2008,07,13,14,25,18.70
2008,07,13,14,26,18.70
2008,07,13,14,27,18.70
2008,07,13,14,28,18.70
2008,07,13,14,29,18.60
2008,07,13,14,30,18.70
2008,07,13,14,31,18.70
2008,07,13,14,32,18.80
2008,07,13,14,33,18.80
2008,07,13,14,34,18.80
2008,07,13,14,35,18.80
2008,07,13,14,36,18.90
2008,07,13,14,37,19.00
2008,07,13,14,38,19.10
2008,07,13,14,39,19.10
2008,07,13,14,40,19.10
2008,07,13,14,41,19.10
2008,07,13,14,42,19.00
2008,07,13,14,43,19.10
2008,07,13,14,44,19.10
2008,07,13,14,45,19.10
2008,07,13,14,46,19.10
2008,07,13,14,47,19.10
2008,07,13,14,48,19.10
2008,07,13,14,49,19.30
2008,07,13,14,50,19.40
2008,07,13,14,51,19.40
2008,07,13,14,52,19.30
2008,07,13,14,53,19.30
2008,07,13,14,54,19.30
2008,07,13,14,55,19.30
2008,07,13,14,56,19.40
2008,07,13,14,57,19.30
2008,07,13,14,58,19.30
2008,07,13,14,59,19.40
2008,07,13,15,00,19.40
2008,07,13,15,01,19.40
2008,07,13,15,02,19.40
2008,07,13,15,03,19.40
2008,07,13,15,04,19.30
2008,07,13,15,05,19.10
2008,07,13,15,06,19.10
2008,07,13,15,07,19.20
2008,07,13,15,08,19.40
2008,07,13,15,09,19.50
2008,07,13,15,10,19.50
2008,07,13,15,11,19.50
2008,07,13,15,12,19.60
2008,07,13,15,13,19.70
2008,07,13,15,14,19.80
2008,07,13,15,15,19.90
2008,07,13,15,16,19.90
2008,07,13,15,17,19.90
2008,07,13,15,18,19.90
2008,07,13,15,19,20.10
2008,07,13,15,20,20.20
2008,07,13,15,21,20.20
2008,07,13,15,22,20.20
2008,07,13,15,23,20.20
2008,07,13,15,24,20.20
2008,07,13,15,25,20.10
2008,07,13,15,26,19.90
2008,07,13,15,27,19.70
2008,07,13,15,28,19.60
2008,07,13,15,29,19.60
2008,07,13,15,30,19.50
2008,07,13,15,31,19.50
2008,07,13,15,32,19.50
2008,07,13,15,33,19.60
2008,07,13,15,34,19.60
2008,07,13,15,35,19.50
2008,07,13,15,36,19.50
2008,07,13,15,37,19.60
2008,07,13,15,38,19.50
2008,07,13,15,39,19.50
2008,07,13,15,40,19.40
2008,07,13,15,41,19.40
2008,07,13,15,42,19.50
2008,07,13,15,43,19.60
2008,07,13,15,44,19.70
2008,07,13,15,45,19.80
2008,07,13,15,46,19.90
2008,07,13,15,47,19.90
2008,07,13,15,48,20.00
2008,07,13,15,49,20.10
2008,07,13,15,50,20.20
2008,07,13,15,51,20.30
2008,07,13,15,52,20.30
2008,07,13,15,53,20.50
2008,07,13,15,54,20.60
2008,07,13,15,55,20.70
2008,07,13,15,56,20.80
2008,07,13,15,57,20.90
2008,07,13,15,58,21.00
2008,07,13,15,59,21.20
2008,07,13,16,00,21.30
2008,07,13,16,01,21.30
2008,07,13,16,02,21.30
2008,07,13,16,03,21.20
2008,07,13,16,04,21.30
2008,07,13,16,05,21.30
2008,07,13,16,06,21.40
2008,07,13,16,07,21.50
2008,07,13,16,08,21.50
2008,07,13,16,09,21.40
2008,07,13,16,10,21.40
2008,07,13,16,11,21.40
2008,07,13,16,12,21.50
2008,07,13,16,13,21.70
2008,07,13,16,14,21.80
2008,07,13,16,15,22.00
2008,07,13,16,16,22.20
2008,07,13,16,17,22.30
2008,07,13,16,18,22.50
2008,07,13,16,19,22.70
2008,07,13,16,20,22.90
2008,07,13,16,21,23.10
2008,07,13,16,22,23.20
2008,07,13,16,23,23.30
2008,07,13,16,24,23.30
2008,07,13,16,25,23.30
2008,07,13,16,26,23.30
2008,07,13,16,27,23.40
2008,07,13,16,28,23.40
2008,07,13,16,29,23.40
2008,07,13,16,30,23.50
2008,07,13,16,31,23.60
2008,07,13,16,32,23.70
2008,07,13,16,33,23.90
2008,07,13,16,34,24.00
2008,07,13,16,35,24.10
2008,07,13,16,36,24.00
2008,07,13,16,37,23.80
2008,07,13,16,38,23.70
2008,07,13,16,39,23.70
2008,07,13,16,40,23.80
2008,07,13,16,41,23.70
2008,07,13,16,42,23.70
2008,07,13,16,43,23.70
2008,07,13,16,44,23.80
2008,07,13,16,45,23.90
2008,07,13,16,46,24.00
2008,07,13,16,47,24.10
2008,07,13,16,48,24.10
2008,07,13,16,49,24.10
2008,07,13,16,50,24.20
2008,07,13,16,51,24.20
2008,07,13,16,52,24.30
2008,07,13,16,53,24.40
2008,07,13,16,54,24.50
2008,07,13,16,55,24.50
2008,07,13,16,56,24.50
2008,07,13,16,57,24.50
2008,07,13,16,58,24.50
2008,07,13,16,59,24.60
2008,07,13,17,00,24.70
2008,07,13,17,01,24.80
2008,07,13,17,02,24.90
2008,07,13,17,03,25.00
2008,07,13,17,04,25.10
2008,07,13,17,05,25.10
2008,07,13,17,06,25.10
2008,07,13,17,07,25.10
2008,07,13,17,08,25.10
2008,07,13,17,09,24.90
2008,07,13,17,10,24.80
2008,07,13,17,11,24.60
2008,07,13,17,12,24.60
2008,07,13,17,13,24.60
2008,07,13,17,14,24.50
2008,07,13,17,15,24.50
2008,07,13,17,16,24.40
2008,07,13,17,17,24.40
2008,07,13,17,18,24.40
2008,07,13,17,19,24.40